This is the latest recevied weather packets stored in our database for station/object K4AMF. If no packets are shown the sender has not sent any weather packets the latest 10 day(s).
| Time | Temp. | Humidity | Pressure | Rain* | Wind** | Luminosity | Snow |
|---|---|---|---|---|---|---|---|
| 1778024509 | 23.89° C | 62% | 1016.5 hPa | 0 mm | - | 20 W/m² | - |
| 1778024205 | 23.89° C | 61% | 1016.4 hPa | 0 mm | - | 26 W/m² | - |
| 1778023903 | 23.89° C | 60% | 1016.2 hPa | 0 mm | - | 32 W/m² | - |
| 1778023601 | 23.89° C | 59% | 1016.4 hPa | 0 mm | - | 32 W/m² | - |
| 1778023298 | 24.44° C | 59% | 1016.4 hPa | 0 mm | - | 33 W/m² | - |
| 1778022995 | 24.44° C | 59% | 1016.2 hPa | 0 mm | - | 32 W/m² | - |
| 1778022694 | 24.44° C | 57% | 1016.3 hPa | 0 mm | - | 45 W/m² | - |
| 1778022391 | 25° C | 56% | 1016.5 hPa | 0 mm | - | 49 W/m² | - |
| 1778022087 | 25° C | 55% | 1016.3 hPa | 0 mm | - | 53 W/m² | - |
| 1778021784 | 25° C | 55% | 1016.2 hPa | 0 mm | - | 52 W/m² | - |
| 1778021480 | 25° C | 55% | 1016.2 hPa | 0 mm | - | 49 W/m² | - |
| 1778021177 | 25° C | 55% | 1016.1 hPa | 0 mm | - | 53 W/m² | - |
| 1778020874 | 25° C | 54% | 1016.1 hPa | 0 mm | - | 74 W/m² | - |
| 1778020571 | 25.56° C | 54% | 1016.1 hPa | 0 mm | - | 98 W/m² | - |
| 1778020268 | 25° C | 54% | 1016.3 hPa | 0 mm | - | 169 W/m² | - |
| 1778019964 | 25.56° C | 53% | 1016 hPa | 0 mm | - | 193 W/m² | - |
| 1778019660 | 25.56° C | 53% | 1016.1 hPa | 0 mm | - | 196 W/m² | - |
| 1778019357 | 25.56° C | 53% | 1016.1 hPa | 0 mm | - | 216 W/m² | - |
| 1778019053 | 25.56° C | 54% | 1016 hPa | 0 mm | - | 223 W/m² | - |
| 1778018751 | 26.11° C | 53% | 1016.2 hPa | 0 mm | - | 246 W/m² | - |
| 1778018449 | 26.11° C | 54% | 1016.1 hPa | 0 mm | - | 255 W/m² | - |
| 1778018147 | 25.56° C | 54% | 1016 hPa | 0 mm | - | 260 W/m² | - |
| 1778017844 | 25.56° C | 54% | 1016 hPa | 0 mm | - | 284 W/m² | - |
| 1778017542 | 25.56° C | 55% | 1016.3 hPa | 0 mm | - | 292 W/m² | - |
| 1778017239 | 26.11° C | 55% | 1016.1 hPa | 0 mm | - | 107 W/m² | - |
* Rain latest hour (hover to see other rain measurements)
** Current wind speed in m/s (hover to see current wind gust speed)